Total_Precipitation_Accumulation
0.00 0.00 0.00 0.00 0.00 0.01 0.03 0.05 0.02 0.05 0.09 0.07 0.05 0.02 0.01 0.08 0.11 0.15 0.10 0.06 0.10 0.07 0.02 0.02 0.01 0.01 0.00 0.00 0.00 0.00 0.00 0.00 0.00 0.00 0.01 0.02 0.02 0.00 0.01 0.05 0.13 0.05 0.00
0.00 0.00 0.00 0.00 0.00 0.00 0.00 0.01 0.02 0.03 0.05 0.02 0.07 0.06 0.04 0.03 0.04 0.11 0.07 0.09 0.20 0.08 0.05 0.01 0.01 0.01 0.04 0.00 0.01 0.00 0.01 0.00 0.00 0.00 0.00 0.04 0.03 0.00 0.01 0.05 0.04 0.00 0.00
0.00 0.00 0.00 0.00 0.00 0.00 0.00 0.00 0.01 0.04 0.04 0.01 0.07 0.16 0.11 0.06 0.03 0.02 0.03 0.04 0.04 0.06 0.08 0.09 0.05 0.08 0.10 0.04 0.05 0.02 0.03 0.05 0.07 0.06 0.02 0.01 0.00 0.01 0.08 0.08 0.06 0.01 0.00
0.00 0.00 0.00 0.00 0.00 0.00 0.00 0.00 0.00 0.00 0.02 0.01 0.01 0.07 0.05 0.03 0.02 0.00 0.01 0.02 0.06 0.04 0.11 0.08 0.04 0.12 0.21 0.11 0.04 0.08 0.06 0.10 0.15 0.14 0.07 0.01 0.04 0.05 0.13 0.14 0.14 0.07 0.00
0.00 0.00 0.00 0.00 0.00 0.00 0.00 0.00 0.01 0.03 0.01 0.01 0.02 0.05 0.06 0.01 0.01 0.01 0.02 0.03 0.05 0.10 0.11 0.11 0.04 0.09 0.21 0.22 0.14 0.15 0.16 0.13 0.14 0.08 0.07 0.10 0.10 0.25 0.57 0.31 0.20 0.15 0.06
0.00 0.00 0.00 0.04 0.06 0.04 0.05 0.09 0.07 0.06 0.03 0.06 0.10 0.13 0.09 0.02 0.10 0.05 0.02 0.04 0.05 0.06 0.10 0.11 0.11 0.18 0.17 0.13 0.02 0.03 0.10 0.12 0.13 0.15 0.14 0.14 0.25 0.42 0.24 0.17 0.20 0.16 0.13
0.01 0.01 0.00 0.03 0.08 0.05 0.06 0.05 0.04 0.05 0.05 0.05 0.10 0.13 0.12 0.13 0.10 0.04 0.01 0.00 0.02 0.04 0.06 0.07 0.05 0.08 0.20 0.17 0.23 0.06 0.00 0.00 0.02 0.06 0.07 0.09 0.13 0.15 0.13 0.12 0.15 0.16 0.18
0.09 0.03 0.04 0.05 0.06 0.06 0.06 0.06 0.08 0.07 0.07 0.11 0.18 0.24 0.24 0.22 0.12 0.08 0.02 0.00 0.03 0.08 0.10 0.08 0.14 0.14 0.18 0.35 0.22 0.16 0.10 0.06 0.03 0.00 0.03 0.06 0.15 0.08 0.06 0.12 0.15 0.16 0.14
0.18 0.20 0.20 0.26 0.34 0.27 0.22 0.15 0.11 0.15 0.18 0.18 0.21 0.25 0.22 0.20 0.11 0.06 0.04 0.01 0.02 0.07 0.07 0.07 0.07 0.07 0.16 0.21 0.18 0.19 0.28 0.12 0.05 0.00 0.00 0.00 0.01 0.00 0.00 0.01 0.12 0.18 0.26
0.08 0.08 0.12 0.08 0.10 0.11 0.08 0.04 0.03 0.04 0.08 0.09 0.09 0.08 0.10 0.09 0.09 0.08 0.05 0.02 0.02 0.02 0.01 0.01 0.00 0.01 0.01 0.00 0.05 0.13 0.24 0.15 0.03 0.00 0.00 0.00 0.00 0.00 0.00 0.00 0.03 0.10 0.13
0.10 0.06 0.02 0.05 0.04 0.05 0.08 0.05 0.02 0.04 0.05 0.05 0.03 0.03 0.06 0.09 0.12 0.17 0.18 0.14 0.17 0.14 0.10 0.07 0.04 0.05 0.02 0.01 0.01 0.02 0.05 0.04 0.03 0.01 0.00 0.00 0.00 0.00 0.00 0.00 0.00 0.00 0.01
0.01 0.05 0.05 0.01 0.00 0.00 0.00 0.00 0.01 0.03 0.02 0.05 0.12 0.20 0.38 0.41 0.47 0.33 0.18 0.13 0.15 0.13 0.19 0.28 0.32 0.44 0.23 0.13 0.07 0.04 0.02 0.01 0.01 0.01 0.00 0.01 0.01 0.01 0.02 0.01 0.01 0.02 0.03
0.01 0.01 0.00 0.00 0.00 0.00 0.00 0.00 0.00 0.00 0.00 0.00 0.02 0.02 0.02 0.04 0.07 0.07 0.03 0.02 0.05 0.08 0.09 0.10 0.13 0.17 0.13 0.10 0.09 0.08 0.06 0.04 0.03 0.03 0.04 0.03 0.03 0.02 0.02 0.02 0.01 0.01 0.01
0.01 0.01 0.00 0.00 0.00 0.00 0.00 0.00 0.00 0.00 0.00 0.00 0.00 0.00 0.00 0.00 0.00 0.00 0.01 0.01 0.01 0.01 0.02 0.02 0.01 0.01 0.02 0.02 0.03 0.03 0.02 0.01 0.01 0.00 0.00 0.00 0.00 0.00 0.00 0.00 0.00 0.00 0.00
0.00 0.02 0.01 0.00 0.00 0.00 0.00 0.00 0.00 0.00 0.00 0.00 0.00 0.01 0.01 0.01 0.08 0.07 0.07 0.06 0.03 0.07 0.06 0.03 0.02 0.01 0.00 0.00 0.01 0.02 0.04 0.07 0.07 0.06 0.02 0.02 0.02 0.01 0.00 0.00 0.00 0.00 0.00
0.00 0.00 0.00 0.00 0.00 0.00 0.00 0.00 0.00 0.00 0.00 0.00 0.00 0.01 0.01 0.01 0.02 0.04 0.05 0.03 0.06 0.15 0.13 0.12 0.11 0.11 0.11 0.09 0.09 0.10 0.09 0.05 0.03 0.01 0.01 0.00 0.00 0.00 0.00 0.00 0.00 0.00 0.00
0.00 0.00 0.00 0.00 0.00 0.00 0.00 0.00 0.00 0.00 0.00 0.00 0.00 0.00 0.00 0.00 0.00 0.00 0.00 0.00 0.00 0.00 0.00 0.00 0.02 0.06 0.06 0.04 0.02 0.01 0.00 0.00 0.00 0.00 0.00 0.00 0.00 0.00 0.00 0.00 0.00 0.00 0.00
0.00 0.00 0.00 0.00 0.00 0.00 0.00 0.00 0.00 0.00 0.00 0.00 0.00 0.00 0.00 0.00 0.00 0.00 0.00 0.00 0.00 0.00 0.00 0.00 0.00 0.00 0.00 0.00 0.00 0.00 0.00 0.00 0.00 0.00 0.00 0.00 0.00 0.00 0.00 0.00 0.00 0.00 0.00
0.00 0.00 0.00 0.00 0.00 0.00 0.00 0.00 0.00 0.00 0.00 0.00 0.00 0.00 0.00 0.00 0.00 0.00 0.00 0.00 0.00 0.00 0.00 0.00 0.00 0.00 0.00 0.00 0.00 0.00 0.00 0.00 0.00 0.00 0.00 0.00 0.00 0.00 0.00 0.00 0.00 0.00 0.00
0.00 0.00 0.00 0.00 0.00 0.00 0.00 0.00 0.00 0.00 0.00 0.00 0.00 0.00 0.00 0.00 0.00 0.00 0.00 0.00 0.00 0.00 0.00 0.00 0.00 0.00 0.00 0.00 0.00 0.00 0.00 0.00 0.00 0.00 0.00 0.00 0.00 0.00 0.00 0.00 0.00 0.00 0.00
0.00 0.00 0.00 0.00 0.00 0.00 0.00 0.00 0.00 0.00 0.00 0.00 0.00 0.00 0.00 0.00 0.00 0.00 0.00 0.00 0.00 0.00 0.00 0.00 0.00 0.00 0.00 0.00 0.00 0.00 0.00 0.00 0.00 0.00 0.00 0.00 0.00 0.00 0.00 0.00 0.00 0.00 0.00
0.00 0.00 0.00 0.00 0.00 0.00 0.00 0.00 0.00 0.00 0.00 0.00 0.00 0.00 0.00 0.00 0.00 0.00 0.00 0.00 0.00 0.00 0.00 0.00 0.00 0.00 0.00 0.00 0.00 0.00 0.00 0.00 0.00 0.00 0.00 0.00 0.00 0.00 0.00 0.00 0.00 0.00 0.00
0.00 0.00 0.00 0.00 0.00 0.00 0.00 0.00 0.00 0.00 0.00 0.00 0.00 0.00 0.00 0.00 0.00 0.00 0.00 0.00 0.00 0.00 0.00 0.00 0.00 0.00 0.00 0.00 0.00 0.00 0.00 0.00 0.00 0.00 0.00 0.00 0.00 0.00 0.00 0.00 0.00 0.00 0.00
0.00 0.00 0.00 0.00 0.00 0.00 0.00 0.00 0.00 0.00 0.00 0.00 0.00 0.00 0.00 0.00 0.00 0.00 0.00 0.00 0.00 0.00 0.00 0.00 0.00 0.00 0.00 0.00 0.00 0.00 0.00 0.00 0.00 0.00 0.00 0.00 0.00 0.00 0.00 0.00 0.00 0.00 0.00
0.00 0.00 0.00 0.00 0.00 0.00 0.00 0.00 0.00 0.00 0.00 0.00 0.00 0.00 0.00 0.00 0.00 0.00 0.00 0.00 0.00 0.00 0.00 0.00 0.00 0.00 0.00 0.00 0.00 0.00 0.00 0.00 0.00 0.00 0.00 0.00 0.00 0.00 0.00 0.00 0.00 0.00 0.00
0.00 0.00 0.00 0.00 0.00 0.00 0.00 0.00 0.00 0.00 0.00 0.00 0.00 0.00 0.00 0.00 0.00 0.00 0.00 0.00 0.00 0.00 0.00 0.00 0.00 0.00 0.00 0.00 0.00 0.00 0.00 0.00 0.00 0.00 0.00 0.00 0.00 0.00 0.00 0.00 0.00 0.00 0.00